Lentekhi

Georgia     42˚47′20″N   42˚43′21″E
temp.,
°C
wind,
m/s
gust,
m/s
humid.,
%
clouds,
%
prec.,
mm/h
press.,
hPa
HPBL,
m
1 december, tue
tue101:00−1˚n2254100 0.0 102231
04:00−1˚n225298 0.0 102135
07:00−2˚n225186 0.0 102140
10:00nne225193 0.0 102168
13:00+4˚se114790 0.0 1020504
16:00+3˚sse116394 0.0 1020148
19:00n2271100 0.0 102225
22:00−1˚n236398 0.0 102343
2 december, wed
wed201:00−2˚n336017 0.0 102449
04:00−2˚n335635 0.0 102554
07:00−1˚n3353100 0.0 102550
10:00+1˚n234892 0.0 102587
13:00+5˚se114034 0.0 1023545
16:00+4˚sse115329 0.0 1023193
19:00n22650 0.0 102526
22:00n33610 0.0 102639
3 december, thu
thu301:00−1˚n23610 0.0 102635
04:00−1˚n33610 0.0 102741
07:00−1˚n33630 0.0 102740
10:00+1˚n22590 0.0 102781
13:00+6˚se11490 0.0 1025535
16:00+5˚sse11600 0.0 1024240
19:00+1˚n22730 0.0 102626
22:00n23680 0.0 102633
4 december, fri
fri401:00n23650 0.0 102632
04:00−1˚n23640 0.0 102534
07:00−1˚n33630 0.0 102536
10:00+1˚n22550 0.0 102480
13:00+6˚se114813 0.0 1022434
16:00+4˚se116117 0.0 1021164
19:00n227445 0.0 102324
22:00−1˚n226039 0.0 102334
5 december, sat
sat501:00−1˚n23551 0.0 102338
04:00−1˚n33541 0.0 102343
07:00−2˚n33540 0.0 102348
10:00+1˚n23460 0.0 102391
13:00+5˚se11380 0.0 1021528
16:00+4˚sse11510 0.0 1021222
19:00n22640 0.0 102226
22:00−1˚n23570 0.0 102340